Ashland, WI

2:47 AM CST on January 24, 2018 (GMT -0600)
Kennedy Memorial

Weather History for KASX - October, 2012

Change the Weather History Date:

Monday, October 8, 2012

  Actual Average Record
Temperature  
Mean Temperature 44 °F 48 °F  
Max Temperature 54 °F 58 °F 85 °F (2011)
Min Temperature 34 °F 37 °F 22 °F (1937)
Degree Days  
Heating Degree Days 21 18  
Month to date heating degree days 130  
Cooling Degree Days 0 0  
Month to date cooling degree days 0  
Moisture  
Dew Point 29 °F    
Average Humidity 55    
Maximum Humidity 77    
Minimum Humidity 39    
Precipitation  
Precipitation 0.03 in 0.12 in 1.32 in (1977)
Month to date precipitation 1.05  
Sea Level Pressure  
Sea Level Pressure 29.73 in    
Wind  
Wind Speed 8 mph (SSW)    
Max Wind Speed 15 mph    
Max Gust Speed 24 mph    
Visibility 10 miles    
Events Rain    
T = Trace of Precipitation, MM = Missing Value Source: NWS Daily Summary

Daily Weather History Graph

Daily Weather History Graph

Search for Another Location

Airport or City:

Trip Planner

Search our weather history database for the weather conditions in past years. The results will help you decide how hot, cold, wet, or windy it might be!

Date:

Astronomy

Oct. 08, 2012 Rise Set
Actual Time 7:12 AM CDT 6:28 PM CDT
Civil Twilight 6:42 AM CDT 6:59 PM CDT
Nautical Twilight 6:07 AM CDT 7:34 PM CDT
Astronomical Twilight 5:31 AM CDT 8:09 PM CDT
Moon No Moon Rise 2:40 PM CDT (10/8)
Length of Visible Light 12h 17m
Length of Day
11h 16m
Last Quarter, 46% of the Moon is Illuminated
Oct 8
Last Quarter
Oct 15
New
Oct 21
First Quarter
Oct 29
Full
Nov 6
Last Quarter

Hourly Weather History & Observations

Time (CDT) Temp. Windchill Dew Point Humidity Pressure Visibility Wind Dir Wind Speed Gust Speed Precip Events Conditions
12:53 AM 39.9 °F 34.5 °F 19.0 °F 43% 29.88 in 10.0 mi SSW 8.1 mph - N/A   Clear
1:53 AM 37.9 °F 35.5 °F 19.0 °F 47% 29.88 in 10.0 mi SW 3.5 mph - N/A   Clear
2:53 AM 34.0 °F 31.0 °F 19.9 °F 56% 29.86 in 10.0 mi SSW 3.5 mph - N/A   Clear
3:53 AM 36.0 °F 30.3 °F 21.0 °F 55% 29.84 in 10.0 mi SSW 6.9 mph - N/A   Clear
4:53 AM 37.0 °F 31.6 °F 19.9 °F 50% 29.83 in 10.0 mi SSW 6.9 mph - N/A   Clear
5:53 AM 37.0 °F 31.0 °F 21.0 °F 52% 29.82 in 10.0 mi South 8.1 mph - N/A   Clear
6:53 AM 37.9 °F 31.5 °F 21.0 °F 51% 29.81 in 10.0 mi SSW 9.2 mph - N/A   Clear
7:53 AM 37.9 °F 32.1 °F 21.9 °F 53% 29.80 in 10.0 mi SSW 8.1 mph - N/A   Partly Cloudy
8:53 AM 39.9 °F 34.5 °F 23.0 °F 51% 29.80 in 10.0 mi SSW 8.1 mph - N/A   Partly Cloudy
9:53 AM 43.0 °F 36.4 °F 24.1 °F 47% 29.79 in 10.0 mi SSW 12.7 mph - N/A   Scattered Clouds
10:53 AM 46.9 °F - 25.0 °F 42% 29.76 in 10.0 mi SSW 11.5 mph - N/A   Overcast
11:53 AM 48.0 °F - 25.0 °F 41% 29.75 in 10.0 mi SSW 9.2 mph 18.4 mph N/A   Overcast
12:53 PM 50.0 °F - 26.1 °F 39% 29.70 in 10.0 mi South 8.1 mph - N/A   Overcast
1:53 PM 52.0 °F - 28.0 °F 40% 29.67 in 10.0 mi South 10.4 mph 16.1 mph N/A   Overcast
2:53 PM 54.0 °F - 30.0 °F 40% 29.64 in 10.0 mi SSW 12.7 mph 20.7 mph N/A   Overcast
3:53 PM 53.1 °F - 30.0 °F 41% 29.62 in 10.0 mi SSW 9.2 mph 24.2 mph N/A   Overcast
4:53 PM 48.0 °F - 39.0 °F 71% 29.60 in 10.0 mi South 10.4 mph 16.1 mph 0.01 in Rain Light Rain
5:53 PM 48.0 °F - 39.9 °F 74% 29.60 in 10.0 mi SSW 9.2 mph 16.1 mph 0.01 in   Overcast
6:53 PM 48.9 °F - 39.9 °F 71% 29.59 in 10.0 mi SSW 11.5 mph 23.0 mph 0.01 in   Overcast
7:53 PM 48.9 °F - 42.1 °F 77% 29.61 in 10.0 mi SW 8.1 mph - N/A   Overcast
8:53 PM 48.9 °F - 42.1 °F 77% 29.62 in 10.0 mi SSW 5.8 mph - N/A   Overcast
9:53 PM 50.0 °F - 41.0 °F 71% 29.63 in 10.0 mi WSW 8.1 mph - N/A   Overcast
10:53 PM 48.0 °F - 39.9 °F 74% 29.65 in 10.0 mi WSW 10.4 mph - N/A   Scattered Clouds
11:53 PM 48.0 °F - 37.0 °F 66% 29.66 in 10.0 mi West 15.0 mph 21.9 mph N/A   Scattered Clouds